Location: Malvern Link
(52.1333°N, 2.3000°W)
Time: 06:41:17
(UTC+00:00)

Cosmos 909 Rocket - Pass Details

Date: 18 September 2020
Orbit: 991 x 2088 km, 65.9° (Epoch: 21 October)

Event Time Altitude Azimuth Distance (km) Brightness Sun altitude
Rises 21:37:13 0° 318° (NW) 4,012 8.5 -28.3°
Reaches altitude 10° 21:40:02 10° 319° (NW) 2,947 7.5 -28.6°
Maximum altitude 21:46:45 83° 49° (NE) 1,018 3.9 -29.3°
Enters shadow 21:46:58 81° 87° (E) 1,021 3.9 -29.3°
